Time,TemperatureF,DewpointF,PressureIn,WindDirection,WindDirectionDegrees,WindSpeedMPH,WindSpeedGustMPH,Humidity,HourlyPrecipIn,Conditions,Clouds,dailyrainin,SoftwareType,DateUTC
2013-07-12 00:03:00,58.2,49.6,29.98,NNW,333,0.0,1.0,73,0.00,,---,0.00,VWS V14.00,2013-07-12 07:03:00,
2013-07-12 00:08:00,58.0,49.8,29.98,NW,317,0.0,2.0,74,0.00,,---,0.00,VWS V14.00,2013-07-12 07:08:00,
2013-07-12 00:13:00,57.8,49.6,29.98,NW,317,0.0,2.0,74,0.00,,---,0.00,VWS V14.00,2013-07-12 07:13:00,
2013-07-12 00:18:00,57.5,49.3,29.98,NW,324,1.0,2.0,74,0.00,,---,0.00,VWS V14.00,2013-07-12 07:18:00,
2013-07-12 00:23:00,57.3,49.5,29.98,NW,325,1.0,2.0,75,0.00,,---,0.00,VWS V14.00,2013-07-12 07:23:00,
2013-07-12 00:28:00,57.1,48.9,29.99,NNW,328,0.0,2.0,74,0.00,,---,0.00,VWS V14.00,2013-07-12 07:28:00,
2013-07-12 00:33:00,56.9,49.1,29.99,NNW,328,0.0,0.0,75,0.00,,---,0.00,VWS V14.00,2013-07-12 07:33:00,
2013-07-12 00:38:00,56.7,48.9,29.99,NNW,328,0.0,0.0,75,0.00,,---,0.00,VWS V14.00,2013-07-12 07:38:00,
2013-07-12 00:43:00,56.5,49.0,29.99,NNW,328,0.0,1.0,76,0.00,,---,0.00,VWS V14.00,2013-07-12 07:43:00,
2013-07-12 00:48:00,56.3,48.8,29.99,NNW,328,0.0,2.0,76,0.00,,---,0.00,VWS V14.00,2013-07-12 07:48:00,
2013-07-12 00:53:00,56.1,48.7,29.99,NNW,332,1.0,2.0,76,0.00,,---,0.00,VWS V14.00,2013-07-12 07:53:00,
2013-07-12 00:58:00,55.9,48.8,29.99,NNW,332,2.0,2.0,77,0.00,,---,0.00,VWS V14.00,2013-07-12 07:58:00,
2013-07-12 01:03:00,55.8,49.0,29.99,NW,324,0.0,2.0,78,0.00,,---,0.00,VWS V14.00,2013-07-12 08:03:00,
2013-07-12 01:08:00,55.6,48.9,29.99,NW,324,1.0,2.0,78,0.00,,---,0.00,VWS V14.00,2013-07-12 08:08:00,
2013-07-12 01:13:00,55.5,48.8,29.99,NW,324,0.0,2.0,78,0.00,,---,0.00,VWS V14.00,2013-07-12 08:13:00,
2013-07-12 01:18:00,55.4,49.0,29.99,NW,324,0.0,2.0,79,0.00,,---,0.00,VWS V14.00,2013-07-12 08:18:00,
2013-07-12 01:23:00,55.3,48.9,29.99,NW,321,0.0,2.0,79,0.00,,---,0.00,VWS V14.00,2013-07-12 08:23:00,
2013-07-12 01:28:00,55.1,48.7,29.99,NW,311,0.0,2.0,79,0.00,,---,0.00,VWS V14.00,2013-07-12 08:28:00,
2013-07-12 01:33:00,55.1,48.7,29.99,NW,325,2.0,2.0,79,0.00,,---,0.00,VWS V14.00,2013-07-12 08:33:00,
2013-07-12 01:39:00,55.1,48.7,29.99,North,5,1.0,3.0,79,0.00,,---,0.00,VWS V14.00,2013-07-12 08:39:00,
2013-07-12 01:44:00,55.0,48.6,29.99,North,5,0.0,3.0,79,0.00,,---,0.00,VWS V14.00,2013-07-12 08:44:00,
2013-07-12 01:49:00,54.9,48.5,29.99,NNW,344,0.0,3.0,79,0.00,,---,0.00,VWS V14.00,2013-07-12 08:49:00,
2013-07-12 01:54:00,54.8,48.8,29.99,NNW,329,0.0,3.0,80,0.00,,---,0.00,VWS V14.00,2013-07-12 08:54:00,
2013-07-12 01:59:00,54.8,48.8,29.99,NW,324,2.0,3.0,80,0.00,,---,0.00,VWS V14.00,2013-07-12 08:59:00,
2013-07-12 02:04:00,54.7,48.7,29.99,NNW,335,2.0,3.0,80,0.00,,---,0.00,VWS V14.00,2013-07-12 09:04:00,
2013-07-12 02:09:00,54.6,48.6,29.99,NW,314,3.0,4.0,80,0.00,,---,0.00,VWS V14.00,2013-07-12 09:09:00,
2013-07-12 02:14:00,54.5,48.5,29.99,NW,317,3.0,4.0,80,0.00,,---,0.00,VWS V14.00,2013-07-12 09:14:00,
2013-07-12 02:19:00,54.4,48.4,29.99,NNW,329,2.0,4.0,80,0.00,,---,0.00,VWS V14.00,2013-07-12 09:19:00,
2013-07-12 02:24:00,54.4,48.4,29.99,NW,311,1.0,5.0,80,0.00,,---,0.00,VWS V14.00,2013-07-12 09:24:00,
2013-07-12 02:29:00,54.3,48.3,29.99,NW,317,4.0,5.0,80,0.00,,---,0.00,VWS V14.00,2013-07-12 09:29:00,
2013-07-12 02:34:00,54.3,48.3,29.99,North,5,1.0,6.0,80,0.00,,---,0.00,VWS V14.00,2013-07-12 09:34:00,
2013-07-12 02:39:00,54.3,48.3,29.99,North,360,1.0,6.0,80,0.00,,---,0.00,VWS V14.00,2013-07-12 09:39:00,
2013-07-12 02:44:00,54.3,48.3,29.99,NNW,327,1.0,6.0,80,0.00,,---,0.00,VWS V14.00,2013-07-12 09:44:00,
2013-07-12 02:49:00,54.3,48.3,29.99,NNW,327,0.0,6.0,80,0.00,,---,0.00,VWS V14.00,2013-07-12 09:49:00,
2013-07-12 02:54:00,54.3,48.3,30.00,WNW,298,0.0,6.0,80,0.00,,---,0.00,VWS V14.00,2013-07-12 09:54:00,
2013-07-12 02:59:00,54.2,48.2,29.99,NW,325,2.0,6.0,80,0.00,,---,0.00,VWS V14.00,2013-07-12 09:59:00,
2013-07-12 03:04:00,54.1,48.1,29.99,NW,312,0.0,3.0,80,0.00,,---,0.00,VWS V14.00,2013-07-12 10:04:00,
2013-07-12 03:09:00,54.1,47.7,29.99,WNW,300,0.0,4.0,79,0.00,,---,0.00,VWS V14.00,2013-07-12 10:09:00,
2013-07-12 03:14:00,54.0,47.6,29.99,NNW,337,2.0,4.0,79,0.00,,---,0.00,VWS V14.00,2013-07-12 10:14:00,
2013-07-12 03:19:00,53.9,47.5,29.99,WNW,300,2.0,4.0,79,0.00,,---,0.00,VWS V14.00,2013-07-12 10:19:00,
2013-07-12 03:24:00,53.9,47.5,29.99,NW,305,1.0,4.0,79,0.00,,---,0.00,VWS V14.00,2013-07-12 10:24:00,
2013-07-12 03:29:00,53.8,47.5,29.99,NW,317,1.0,4.0,79,0.00,,---,0.00,VWS V14.00,2013-07-12 10:29:00,
2013-07-12 03:34:00,53.7,47.3,29.99,NW,322,1.0,3.0,79,0.00,,---,0.00,VWS V14.00,2013-07-12 10:34:00,
2013-07-12 03:39:00,53.6,47.3,29.99,WNW,300,1.0,3.0,79,0.00,,---,0.00,VWS V14.00,2013-07-12 10:39:00,
2013-07-12 03:44:00,53.5,47.5,30.00,NW,309,1.0,3.0,80,0.00,,---,0.00,VWS V14.00,2013-07-12 10:44:00,
2013-07-12 03:49:00,53.4,47.4,30.00,WNW,300,0.0,3.0,80,0.00,,---,0.00,VWS V14.00,2013-07-12 10:49:00,
2013-07-12 03:55:00,53.3,47.3,30.00,NW,308,3.0,3.0,80,0.00,,---,0.00,VWS V14.00,2013-07-12 10:55:00,
2013-07-12 04:00:00,53.2,47.2,30.00,North,360,0.0,3.0,80,0.00,,---,0.00,VWS V14.00,2013-07-12 11:00:00,
2013-07-12 04:05:00,53.0,47.3,30.00,NW,320,0.0,2.0,81,0.00,,---,0.00,VWS V14.00,2013-07-12 11:05:00,
2013-07-12 04:10:00,52.9,47.2,30.00,NW,323,1.0,3.0,81,0.00,,---,0.00,VWS V14.00,2013-07-12 11:10:00,
2013-07-12 04:15:00,52.8,47.1,30.00,NNW,333,2.0,3.0,81,0.00,,---,0.00,VWS V14.00,2013-07-12 11:15:00,
2013-07-12 04:20:00,52.6,46.9,30.00,NW,325,1.0,3.0,81,0.00,,---,0.00,VWS V14.00,2013-07-12 11:20:00,
2013-07-12 04:25:00,52.5,47.2,30.00,NNW,328,1.0,4.0,82,0.00,,---,0.00,VWS V14.00,2013-07-12 11:25:00,
2013-07-12 04:30:00,52.4,47.1,30.00,NNW,333,1.0,4.0,82,0.00,,---,0.00,VWS V14.00,2013-07-12 11:30:00,
2013-07-12 04:35:00,52.3,47.3,30.00,NNW,331,3.0,3.0,83,0.00,,---,0.00,VWS V14.00,2013-07-12 11:35:00,
2013-07-12 04:40:00,52.2,47.2,30.00,NNW,330,1.0,3.0,83,0.00,,---,0.00,VWS V14.00,2013-07-12 11:40:00,
2013-07-12 04:45:00,52.1,47.1,30.00,NW,326,2.0,4.0,83,0.00,,---,0.00,VWS V14.00,2013-07-12 11:45:00,
2013-07-12 04:50:00,52.0,47.0,30.00,NW,324,1.0,4.0,83,0.00,,---,0.00,VWS V14.00,2013-07-12 11:50:00,
2013-07-12 04:55:00,51.9,47.2,30.00,NNE,23,1.0,4.0,84,0.00,,---,0.00,VWS V14.00,2013-07-12 11:55:00,
2013-07-12 05:00:00,51.9,47.2,30.00,NW,315,1.0,4.0,84,0.00,,---,0.00,VWS V14.00,2013-07-12 12:00:00,
2013-07-12 05:05:00,51.8,47.1,30.00,NW,306,2.0,3.0,84,0.00,,---,0.00,VWS V14.00,2013-07-12 12:05:00,
2013-07-12 05:10:00,51.7,47.0,30.00,North,10,1.0,3.0,84,0.00,,---,0.00,VWS V14.00,2013-07-12 12:10:00,
2013-07-12 05:15:00,51.6,46.9,30.00,NW,323,1.0,3.0,84,0.00,,---,0.00,VWS V14.00,2013-07-12 12:15:00,
2013-07-12 05:20:00,51.5,47.2,30.00,NW,305,1.0,3.0,85,0.00,,---,0.00,VWS V14.00,2013-07-12 12:20:00,
2013-07-12 05:25:00,51.4,46.7,30.00,NW,305,0.0,3.0,84,0.00,,---,0.00,VWS V14.00,2013-07-12 12:25:00,
2013-07-12 05:30:00,51.3,47.0,30.00,NW,305,1.0,3.0,85,0.00,,---,0.00,VWS V14.00,2013-07-12 12:30:00,
2013-07-12 05:35:00,51.2,46.8,30.00,NW,311,0.0,3.0,85,0.00,,---,0.00,VWS V14.00,2013-07-12 12:35:00,
2013-07-12 05:40:00,51.1,46.8,30.00,NW,314,0.0,3.0,85,0.00,,---,0.00,VWS V14.00,2013-07-12 12:40:00,
2013-07-12 05:45:00,51.0,47.0,30.00,NW,314,1.0,3.0,86,0.00,,---,0.00,VWS V14.00,2013-07-12 12:45:00,
2013-07-12 05:50:00,50.9,46.9,30.00,NW,314,0.0,3.0,86,0.00,,---,0.00,VWS V14.00,2013-07-12 12:50:00,
2013-07-12 05:55:00,50.8,46.8,30.00,NW,320,2.0,3.0,86,0.00,,---,0.00,VWS V14.00,2013-07-12 12:55:00,
2013-07-12 06:01:00,50.8,47.1,30.00,NNW,332,0.0,3.0,87,0.00,,---,0.00,VWS V14.00,2013-07-12 13:01:00,
2013-07-12 06:06:00,50.7,46.7,30.00,NNW,332,0.0,1.0,86,0.00,,---,0.00,VWS V14.00,2013-07-12 13:06:00,
2013-07-12 06:11:00,50.6,46.9,30.00,NNW,332,0.0,1.0,87,0.00,,---,0.00,VWS V14.00,2013-07-12 13:11:00,
2013-07-12 06:16:00,50.7,47.0,30.00,NNW,332,0.0,1.0,87,0.00,,---,0.00,VWS V14.00,2013-07-12 13:16:00,
2013-07-12 06:21:00,50.7,47.3,30.00,NNW,332,0.0,1.0,88,0.00,,---,0.00,VWS V14.00,2013-07-12 13:21:00,
2013-07-12 06:26:00,50.8,47.7,30.01,North,355,0.0,2.0,89,0.00,,---,0.00,VWS V14.00,2013-07-12 13:26:00,
2013-07-12 06:31:00,51.0,47.6,30.01,North,355,1.0,2.0,88,0.00,,---,0.00,VWS V14.00,2013-07-12 13:31:00,
2013-07-12 06:36:00,51.1,47.7,30.00,North,355,0.0,1.0,88,0.00,,---,0.00,VWS V14.00,2013-07-12 13:36:00,
2013-07-12 06:41:00,51.2,47.5,30.01,NNW,344,0.0,1.0,87,0.00,,---,0.00,VWS V14.00,2013-07-12 13:41:00,
2013-07-12 06:46:00,51.3,47.9,30.00,NNW,344,1.0,2.0,88,0.00,,---,0.00,VWS V14.00,2013-07-12 13:46:00,
2013-07-12 06:51:00,51.4,48.0,30.00,NNW,346,0.0,2.0,88,0.00,,---,0.00,VWS V14.00,2013-07-12 13:51:00,
2013-07-12 06:56:00,51.4,47.7,30.00,NNW,346,0.0,2.0,87,0.00,,---,0.00,VWS V14.00,2013-07-12 13:56:00,
2013-07-12 07:01:00,51.5,47.8,30.00,NNW,346,0.0,2.0,87,0.00,,---,0.00,VWS V14.00,2013-07-12 14:01:00,
2013-07-12 07:06:00,51.7,48.6,30.01,NNW,346,0.0,1.0,89,0.00,,---,0.00,VWS V14.00,2013-07-12 14:06:00,
2013-07-12 07:11:00,51.8,48.1,30.00,NNW,346,0.0,1.0,87,0.00,,---,0.00,VWS V14.00,2013-07-12 14:11:00,
2013-07-12 07:16:00,51.8,48.1,30.00,North,5,1.0,1.0,87,0.00,,---,0.00,VWS V14.00,2013-07-12 14:16:00,
2013-07-12 07:21:00,52.0,48.3,30.00,North,360,0.0,2.0,87,0.00,,---,0.00,VWS V14.00,2013-07-12 14:21:00,
2013-07-12 07:26:00,52.2,48.2,30.00,NNW,328,0.0,2.0,86,0.00,,---,0.00,VWS V14.00,2013-07-12 14:26:00,
2013-07-12 07:31:00,52.3,48.2,30.01,NNW,327,1.0,2.0,86,0.00,,---,0.00,VWS V14.00,2013-07-12 14:31:00,
2013-07-12 07:36:00,52.7,48.6,30.01,NE,48,0.0,2.0,86,0.00,,---,0.00,VWS V14.00,2013-07-12 14:36:00,
2013-07-12 07:41:00,53.0,48.6,30.01,North,355,1.0,2.0,85,0.00,,---,0.00,VWS V14.00,2013-07-12 14:41:00,
2013-07-12 07:46:00,53.4,49.0,30.01,NW,319,2.0,3.0,85,0.00,,---,0.00,VWS V14.00,2013-07-12 14:46:00,
2013-07-12 07:51:00,54.0,49.6,30.01,NW,313,3.0,5.0,85,0.00,,---,0.00,VWS V14.00,2013-07-12 14:51:00,
2013-07-12 07:56:00,54.5,50.1,30.01,North,351,2.0,5.0,85,0.00,,---,0.00,VWS V14.00,2013-07-12 14:56:00,
2013-07-12 08:01:00,54.9,49.2,30.01,North,360,1.0,5.0,81,0.00,,---,0.00,VWS V14.00,2013-07-12 15:01:00,
2013-07-12 08:06:00,55.3,49.2,30.01,NW,311,0.0,8.0,80,0.00,,---,0.00,VWS V14.00,2013-07-12 15:06:00,
2013-07-12 08:11:00,55.7,49.6,30.01,NW,323,1.0,8.0,80,0.00,,---,0.00,VWS V14.00,2013-07-12 15:11:00,
2013-07-12 08:16:00,56.0,49.6,30.01,NW,305,5.0,8.0,79,0.00,,---,0.00,VWS V14.00,2013-07-12 15:16:00,
2013-07-12 08:21:00,56.4,50.0,30.01,NNW,327,0.0,8.0,79,0.00,,---,0.00,VWS V14.00,2013-07-12 15:21:00,
2013-07-12 08:27:00,56.9,49.8,30.01,WNW,299,1.0,8.0,77,0.00,,---,0.00,VWS V14.00,2013-07-12 15:27:00,
2013-07-12 08:32:00,57.4,50.3,30.01,NW,319,2.0,8.0,77,0.00,,---,0.00,VWS V14.00,2013-07-12 15:32:00,
2013-07-12 08:37:00,57.8,50.3,30.01,East,80,1.0,5.0,76,0.00,,---,0.00,VWS V14.00,2013-07-12 15:37:00,
2013-07-12 08:42:00,58.2,50.0,30.01,NW,313,3.0,5.0,74,0.00,,---,0.00,VWS V14.00,2013-07-12 15:42:00,
2013-07-12 08:47:00,58.3,49.7,30.01,NNW,342,2.0,7.0,73,0.00,,---,0.00,VWS V14.00,2013-07-12 15:47:00,
2013-07-12 08:52:00,58.4,49.8,30.01,NW,319,5.0,7.0,73,0.00,,---,0.00,VWS V14.00,2013-07-12 15:52:00,
2013-07-12 08:57:00,58.6,50.3,30.00,SW,236,1.0,7.0,74,0.00,,---,0.00,VWS V14.00,2013-07-12 15:57:00,
2013-07-12 09:02:00,59.0,50.0,30.01,NW,326,1.0,7.0,72,0.00,,---,0.00,VWS V14.00,2013-07-12 16:02:00,
2013-07-12 09:07:00,59.2,50.2,30.01,NW,313,0.0,4.0,72,0.00,,---,0.00,VWS V14.00,2013-07-12 16:07:00,
2013-07-12 09:12:00,59.5,49.7,30.00,NW,321,2.0,5.0,70,0.00,,---,0.00,VWS V14.00,2013-07-12 16:12:00,
2013-07-12 09:17:00,59.8,50.0,30.00,NW,312,2.0,6.0,70,0.00,,---,0.00,VWS V14.00,2013-07-12 16:17:00,
2013-07-12 09:22:00,60.0,50.2,30.00,NW,311,3.0,6.0,70,0.00,,---,0.00,VWS V14.00,2013-07-12 16:22:00,
2013-07-12 09:27:00,60.1,49.5,30.00,North,355,1.0,8.0,68,0.00,,---,0.00,VWS V14.00,2013-07-12 16:27:00,
2013-07-12 09:32:00,60.5,49.9,30.00,NNW,338,2.0,3.0,68,0.00,,---,0.00,VWS V14.00,2013-07-12 16:32:00,
2013-07-12 09:37:00,60.8,50.6,30.00,NW,311,1.0,3.0,69,0.00,,---,0.00,VWS V14.00,2013-07-12 16:37:00,
2013-07-12 09:42:00,61.2,51.7,30.00,NE,43,4.0,7.0,71,0.00,,---,0.00,VWS V14.00,2013-07-12 16:42:00,
2013-07-12 09:47:00,61.5,50.8,30.00,NW,313,5.0,7.0,68,0.00,,---,0.00,VWS V14.00,2013-07-12 16:47:00,
2013-07-12 09:52:00,61.7,50.2,30.01,West,273,2.0,7.0,66,0.00,,---,0.00,VWS V14.00,2013-07-12 16:52:00,
2013-07-12 09:57:00,61.8,50.3,30.00,NNW,345,0.0,7.0,66,0.00,,---,0.00,VWS V14.00,2013-07-12 16:57:00,
2013-07-12 10:02:00,62.1,50.6,30.01,North,355,2.0,3.0,66,0.00,,---,0.00,VWS V14.00,2013-07-12 17:02:00,
2013-07-12 10:08:00,62.5,51.8,30.01,NW,324,3.0,4.0,68,0.00,,---,0.00,VWS V14.00,2013-07-12 17:08:00,
2013-07-12 10:13:00,62.7,52.8,30.01,ENE,61,5.0,6.0,70,0.00,,---,0.00,VWS V14.00,2013-07-12 17:13:00,
2013-07-12 10:18:00,62.6,50.3,30.01,NNE,13,0.0,6.0,64,0.00,,---,0.00,VWS V14.00,2013-07-12 17:18:00,
2013-07-12 10:23:00,62.6,51.1,30.01,NNW,347,3.0,6.0,66,0.00,,---,0.00,VWS V14.00,2013-07-12 17:23:00,
2013-07-12 10:28:00,62.9,51.8,30.01,SSW,211,1.0,6.0,67,0.00,,---,0.00,VWS V14.00,2013-07-12 17:28:00,
2013-07-12 10:33:00,63.2,50.8,30.02,NW,323,3.0,4.0,64,0.00,,---,0.00,VWS V14.00,2013-07-12 17:33:00,
2013-07-12 10:38:00,63.2,50.8,30.02,NW,317,1.0,5.0,64,0.00,,---,0.00,VWS V14.00,2013-07-12 17:38:00,
2013-07-12 10:43:00,63.4,51.4,30.01,NNW,330,1.0,5.0,65,0.00,,---,0.00,VWS V14.00,2013-07-12 17:43:00,
2013-07-12 10:48:00,63.5,51.1,30.01,East,92,4.0,6.0,64,0.00,,---,0.00,VWS V14.00,2013-07-12 17:48:00,
2013-07-12 10:54:00,63.5,51.1,30.01,NE,55,2.0,6.0,64,0.00,,---,0.00,VWS V14.00,2013-07-12 17:54:00,
2013-07-12 10:59:00,63.9,51.1,30.01,North,360,2.0,6.0,63,0.00,,---,0.00,VWS V14.00,2013-07-12 17:59:00,
2013-07-12 11:04:00,64.2,52.2,30.01,ENE,61,0.0,5.0,65,0.00,,---,0.00,VWS V14.00,2013-07-12 18:04:00,
2013-07-12 11:09:00,64.3,51.5,30.01,NNW,329,0.0,6.0,63,0.00,,---,0.00,VWS V14.00,2013-07-12 18:09:00,
2013-07-12 11:14:00,64.8,52.3,30.01,NW,313,3.0,6.0,64,0.00,,---,0.00,VWS V14.00,2013-07-12 18:14:00,
2013-07-12 11:19:00,65.2,53.2,30.01,WNW,282,0.0,6.0,65,0.00,,---,0.00,VWS V14.00,2013-07-12 18:19:00,
2013-07-12 11:24:00,65.9,52.5,30.01,NW,316,1.0,7.0,62,0.00,,---,0.00,VWS V14.00,2013-07-12 18:24:00,
2013-07-12 11:29:00,66.4,52.1,30.01,NE,35,2.0,7.0,60,0.00,,---,0.00,VWS V14.00,2013-07-12 18:29:00,
2013-07-12 11:34:00,67.1,52.8,30.01,WNW,285,0.0,7.0,60,0.00,,---,0.00,VWS V14.00,2013-07-12 18:34:00,
2013-07-12 11:39:00,67.5,52.7,30.02,NW,319,0.0,7.0,59,0.00,,---,0.00,VWS V14.00,2013-07-12 18:39:00,
2013-07-12 11:45:00,67.9,52.6,30.01,NW,319,5.0,7.0,58,0.00,,---,0.00,VWS V14.00,2013-07-12 18:45:00,
2013-07-12 11:50:00,67.9,51.6,30.01,NE,43,1.0,7.0,56,0.00,,---,0.00,VWS V14.00,2013-07-12 18:50:00,
2013-07-12 11:55:00,68.0,51.7,30.01,NNW,340,3.0,7.0,56,0.00,,---,0.00,VWS V14.00,2013-07-12 18:55:00,
2013-07-12 12:00:00,68.1,53.2,30.01,NNE,24,2.0,7.0,59,0.00,,---,0.00,VWS V14.00,2013-07-12 19:00:00,
2013-07-12 12:05:00,68.3,53.4,30.01,ENE,63,1.0,8.0,59,0.00,,---,0.00,VWS V14.00,2013-07-12 19:05:00,
2013-07-12 12:10:00,68.3,51.5,30.01,NNW,328,3.0,8.0,55,0.00,,---,0.00,VWS V14.00,2013-07-12 19:10:00,
2013-07-12 12:15:00,68.5,50.7,30.01,West,275,0.0,8.0,53,0.00,,---,0.00,VWS V14.00,2013-07-12 19:15:00,
2013-07-12 12:20:00,68.8,51.5,30.01,NE,50,1.0,8.0,54,0.00,,---,0.00,VWS V14.00,2013-07-12 19:20:00,
2013-07-12 12:26:00,69.2,52.8,30.01,SW,234,2.0,8.0,56,0.00,,---,0.00,VWS V14.00,2013-07-12 19:26:00,
2013-07-12 12:31:00,69.4,52.5,30.01,North,5,2.0,8.0,55,0.00,,---,0.00,VWS V14.00,2013-07-12 19:31:00,
2013-07-12 12:36:00,69.3,52.0,30.01,SSW,199,0.0,5.0,54,0.00,,---,0.00,VWS V14.00,2013-07-12 19:36:00,
2013-07-12 12:41:00,69.5,51.6,30.01,NW,314,1.0,5.0,53,0.00,,---,0.00,VWS V14.00,2013-07-12 19:41:00,
2013-07-12 12:46:00,69.9,51.0,30.01,NNW,340,1.0,5.0,51,0.00,,---,0.00,VWS V14.00,2013-07-12 19:46:00,
2013-07-12 12:51:00,69.8,49.2,30.01,ENE,70,2.0,5.0,48,0.00,,---,0.00,VWS V14.00,2013-07-12 19:51:00,
2013-07-12 12:56:00,69.9,52.0,30.01,NNW,339,2.0,5.0,53,0.00,,---,0.00,VWS V14.00,2013-07-12 19:56:00,
2013-07-12 13:02:00,69.9,50.4,30.01,NNW,346,1.0,5.0,50,0.00,,---,0.00,VWS V14.00,2013-07-12 20:02:00,
2013-07-12 13:07:00,69.9,52.0,30.01,ENE,69,1.0,5.0,53,0.00,,---,0.00,VWS V14.00,2013-07-12 20:07:00,
2013-07-12 13:12:00,70.0,52.1,30.01,NE,51,2.0,5.0,53,0.00,,---,0.00,VWS V14.00,2013-07-12 20:12:00,
2013-07-12 13:17:00,70.7,52.2,30.01,North,355,2.0,5.0,52,0.00,,---,0.00,VWS V14.00,2013-07-12 20:17:00,
2013-07-12 13:22:00,70.8,51.8,30.01,NE,49,1.0,6.0,51,0.00,,---,0.00,VWS V14.00,2013-07-12 20:22:00,
2013-07-12 13:27:00,71.0,50.9,30.01,SSE,161,2.0,6.0,49,0.00,,---,0.00,VWS V14.00,2013-07-12 20:27:00,
2013-07-12 13:33:00,70.6,52.7,30.01,NE,55,2.0,3.0,53,0.00,,---,0.00,VWS V14.00,2013-07-12 20:33:00,
2013-07-12 13:38:00,70.6,49.4,30.01,SSE,162,2.0,6.0,47,0.00,,---,0.00,VWS V14.00,2013-07-12 20:38:00,
2013-07-12 13:43:00,70.7,48.9,30.01,NE,40,0.0,6.0,46,0.00,,---,0.00,VWS V14.00,2013-07-12 20:43:00,
2013-07-12 13:48:00,70.5,48.2,30.01,South,173,4.0,6.0,45,0.00,,---,0.00,VWS V14.00,2013-07-12 20:48:00,
2013-07-12 13:53:00,70.2,49.0,30.00,NE,35,0.0,6.0,47,0.00,,---,0.00,VWS V14.00,2013-07-12 20:53:00,
2013-07-12 13:58:00,70.5,49.9,30.00,ENE,76,2.0,6.0,48,0.00,,---,0.00,VWS V14.00,2013-07-12 20:58:00,
2013-07-12 14:03:00,71.0,50.9,30.00,NNE,17,2.0,3.0,49,0.00,,---,0.00,VWS V14.00,2013-07-12 21:03:00,
2013-07-12 14:08:00,71.7,51.0,30.01,NE,37,4.0,6.0,48,0.00,,---,0.00,VWS V14.00,2013-07-12 21:08:00,
2013-07-12 14:13:00,71.6,47.9,30.01,ESE,119,0.0,6.0,43,0.00,,---,0.00,VWS V14.00,2013-07-12 21:13:00,
2013-07-12 14:18:00,71.8,48.7,30.01,SSE,163,1.0,6.0,44,0.00,,---,0.00,VWS V14.00,2013-07-12 21:18:00,
2013-07-12 14:23:00,71.9,51.7,30.01,NNW,344,3.0,6.0,49,0.00,,---,0.00,VWS V14.00,2013-07-12 21:23:00,
2013-07-12 14:28:00,72.9,49.1,30.00,West,275,1.0,8.0,43,0.00,,---,0.00,VWS V14.00,2013-07-12 21:28:00,
2013-07-12 14:33:00,73.2,52.4,30.00,NE,45,0.0,5.0,48,0.00,,---,0.00,VWS V14.00,2013-07-12 21:33:00,
2013-07-12 14:38:00,73.4,49.6,30.00,NNW,348,3.0,6.0,43,0.00,,---,0.00,VWS V14.00,2013-07-12 21:38:00,
2013-07-12 14:44:00,73.4,52.5,30.00,NE,41,0.0,7.0,48,0.00,,---,0.00,VWS V14.00,2013-07-12 21:44:00,
2013-07-12 14:49:00,73.7,47.9,30.01,NNW,334,3.0,7.0,40,0.00,,---,0.00,VWS V14.00,2013-07-12 21:49:00,
2013-07-12 14:54:00,73.2,49.4,30.00,NE,40,2.0,7.0,43,0.00,,---,0.00,VWS V14.00,2013-07-12 21:54:00,
2013-07-12 14:59:00,72.9,50.3,30.00,ENE,62,3.0,8.0,45,0.00,,---,0.00,VWS V14.00,2013-07-12 21:59:00,
2013-07-12 15:04:00,72.9,49.7,30.00,NNW,340,2.0,4.0,44,0.00,,---,0.00,VWS V14.00,2013-07-12 22:04:00,
2013-07-12 15:09:00,73.3,48.2,30.00,NW,311,7.0,9.0,41,0.00,,---,0.00,VWS V14.00,2013-07-12 22:09:00,
2013-07-12 15:14:00,73.4,49.6,30.00,South,188,0.0,9.0,43,0.00,,---,0.00,VWS V14.00,2013-07-12 22:14:00,
2013-07-12 15:19:00,73.9,50.0,30.00,NW,319,2.0,9.0,43,0.00,,---,0.00,VWS V14.00,2013-07-12 22:19:00,
2013-07-12 15:25:00,74.2,47.7,30.00,NE,40,1.0,9.0,39,0.00,,---,0.00,VWS V14.00,2013-07-12 22:25:00,
2013-07-12 15:30:00,74.1,48.9,30.00,North,350,1.0,9.0,41,0.00,,---,0.00,VWS V14.00,2013-07-12 22:30:00,
2013-07-12 15:35:00,74.3,48.4,30.00,SE,136,0.0,4.0,40,0.00,,---,0.00,VWS V14.00,2013-07-12 22:35:00,
2013-07-12 15:40:00,74.7,48.8,30.00,NNW,327,6.0,7.0,40,0.00,,---,0.00,VWS V14.00,2013-07-12 22:40:00,
2013-07-12 15:45:00,74.2,46.3,30.00,West,274,2.0,7.0,37,0.00,,---,0.00,VWS V14.00,2013-07-12 22:45:00,
2013-07-12 15:50:00,74.4,48.5,30.00,NW,311,4.0,7.0,40,0.00,,---,0.00,VWS V14.00,2013-07-12 22:50:00,
2013-07-12 15:55:00,74.6,46.6,30.00,ESE,112,0.0,7.0,37,0.00,,---,0.00,VWS V14.00,2013-07-12 22:55:00,
2013-07-12 16:01:00,74.9,49.0,30.00,NE,38,1.0,7.0,40,0.00,,---,0.00,VWS V14.00,2013-07-12 23:01:00,
2013-07-12 16:06:00,74.9,46.9,30.00,NNW,342,3.0,5.0,37,0.00,,---,0.00,VWS V14.00,2013-07-12 23:06:00,
2013-07-12 16:11:00,75.1,49.2,30.00,North,9,1.0,5.0,40,0.00,,---,0.00,VWS V14.00,2013-07-12 23:11:00,
2013-07-12 16:16:00,75.5,50.2,30.00,WSW,253,2.0,8.0,41,0.00,,---,0.00,VWS V14.00,2013-07-12 23:16:00,
2013-07-12 16:21:00,75.8,47.7,30.00,NW,311,3.0,8.0,37,0.00,,---,0.00,VWS V14.00,2013-07-12 23:21:00,
2013-07-12 16:26:00,75.8,50.5,30.00,ENE,61,3.0,8.0,41,0.00,,---,0.00,VWS V14.00,2013-07-12 23:26:00,
2013-07-12 16:31:00,75.4,48.0,30.00,North,11,3.0,9.0,38,0.00,,---,0.00,VWS V14.00,2013-07-12 23:31:00,
2013-07-12 16:36:00,75.3,48.7,29.99,NE,49,1.0,6.0,39,0.00,,---,0.00,VWS V14.00,2013-07-12 23:36:00,
2013-07-12 16:42:00,75.5,48.1,30.00,NNW,340,3.0,7.0,38,0.00,,---,0.00,VWS V14.00,2013-07-12 23:42:00,
2013-07-12 16:47:00,75.7,47.6,29.99,NNW,327,4.0,9.0,37,0.00,,---,0.00,VWS V14.00,2013-07-12 23:47:00,
2013-07-12 16:52:00,75.5,48.8,29.99,NW,306,0.0,9.0,39,0.00,,---,0.00,VWS V14.00,2013-07-12 23:52:00,
2013-07-12 16:57:00,75.6,48.9,29.99,West,273,3.0,9.0,39,0.00,,---,0.00,VWS V14.00,2013-07-12 23:57:00,
2013-07-12 17:02:00,75.7,51.0,29.99,NW,320,5.0,5.0,42,0.00,,---,0.00,VWS V14.00,2013-07-13 00:02:00,
2013-07-12 17:07:00,75.6,48.9,29.99,North,360,3.0,6.0,39,0.00,,---,0.00,VWS V14.00,2013-07-13 00:07:00,
2013-07-12 17:12:00,75.5,50.2,29.99,NNW,340,1.0,7.0,41,0.00,,---,0.00,VWS V14.00,2013-07-13 00:12:00,
2013-07-12 17:18:00,75.6,51.5,29.98,NNE,18,0.0,7.0,43,0.00,,---,0.00,VWS V14.00,2013-07-13 00:18:00,
2013-07-12 17:23:00,75.5,48.8,29.99,NW,319,3.0,7.0,39,0.00,,---,0.00,VWS V14.00,2013-07-13 00:23:00,
2013-07-12 17:28:00,75.7,50.4,29.99,NW,317,0.0,7.0,41,0.00,,---,0.00,VWS V14.00,2013-07-13 00:28:00,
2013-07-12 17:33:00,75.6,49.6,29.99,ENE,67,1.0,2.0,40,0.00,,---,0.00,VWS V14.00,2013-07-13 00:33:00,
2013-07-12 17:38:00,75.6,49.6,29.98,North,5,1.0,5.0,40,0.00,,---,0.00,VWS V14.00,2013-07-13 00:38:00,
2013-07-12 17:43:00,75.5,50.2,29.98,NE,35,1.0,8.0,41,0.00,,---,0.00,VWS V14.00,2013-07-13 00:43:00,
2013-07-12 17:48:00,75.2,47.9,29.98,NNW,338,3.0,8.0,38,0.00,,---,0.00,VWS V14.00,2013-07-13 00:48:00,
2013-07-12 17:53:00,75.3,49.3,29.98,NW,325,3.0,8.0,40,0.00,,---,0.00,VWS V14.00,2013-07-13 00:53:00,
2013-07-12 17:58:00,75.4,48.8,29.99,NNW,348,1.0,8.0,39,0.00,,---,0.00,VWS V14.00,2013-07-13 00:58:00,
2013-07-12 18:03:00,75.4,50.7,29.99,NE,47,1.0,3.0,42,0.00,,---,0.00,VWS V14.00,2013-07-13 01:03:00,
2013-07-12 18:08:00,75.5,49.5,29.98,NW,323,2.0,6.0,40,0.00,,---,0.00,VWS V14.00,2013-07-13 01:08:00,
2013-07-12 18:13:00,75.1,49.8,29.98,NW,321,0.0,6.0,41,0.00,,---,0.00,VWS V14.00,2013-07-13 01:13:00,
2013-07-12 18:18:00,75.0,49.1,29.99,NNW,339,2.0,6.0,40,0.00,,---,0.00,VWS V14.00,2013-07-13 01:18:00,
2013-07-12 18:23:00,75.0,51.0,29.98,NE,38,1.0,6.0,43,0.00,,---,0.00,VWS V14.00,2013-07-13 01:23:00,
2013-07-12 18:28:00,74.9,50.9,29.98,WNW,301,2.0,7.0,43,0.00,,---,0.00,VWS V14.00,2013-07-13 01:28:00,
2013-07-12 18:33:00,74.5,51.2,29.98,NNE,31,2.0,2.0,44,0.00,,---,0.00,VWS V14.00,2013-07-13 01:33:00,
2013-07-12 18:39:00,74.0,50.1,29.98,ENE,74,3.0,5.0,43,0.00,,---,0.00,VWS V14.00,2013-07-13 01:39:00,
2013-07-12 18:44:00,73.6,50.4,29.99,NW,325,3.0,5.0,44,0.00,,---,0.00,VWS V14.00,2013-07-13 01:44:00,
2013-07-12 18:49:00,73.2,50.6,29.99,WNW,289,1.0,5.0,45,0.00,,---,0.00,VWS V14.00,2013-07-13 01:49:00,
2013-07-12 18:55:00,72.8,49.6,29.99,West,281,0.0,5.0,44,0.00,,---,0.00,VWS V14.00,2013-07-13 01:55:00,
2013-07-12 19:00:00,72.3,50.4,29.99,NNW,340,1.0,5.0,46,0.00,,---,0.00,VWS V14.00,2013-07-13 02:00:00,
2013-07-12 19:05:00,71.8,51.1,29.99,NW,313,1.0,3.0,48,0.00,,---,0.00,VWS V14.00,2013-07-13 02:05:00,
2013-07-12 19:10:00,71.3,51.2,29.99,NW,322,1.0,6.0,49,0.00,,---,0.00,VWS V14.00,2013-07-13 02:10:00,
2013-07-12 19:15:00,71.0,50.9,29.99,NW,313,3.0,6.0,49,0.00,,---,0.00,VWS V14.00,2013-07-13 02:15:00,
2013-07-12 19:20:00,70.6,51.1,30.00,North,5,3.0,6.0,50,0.00,,---,0.00,VWS V14.00,2013-07-13 02:20:00,
2013-07-12 19:25:00,70.2,52.8,30.00,NW,313,2.0,6.0,54,0.00,,---,0.00,VWS V14.00,2013-07-13 02:25:00,
2013-07-12 19:31:00,69.7,53.3,30.00,NNW,333,1.0,6.0,56,0.00,,---,0.00,VWS V14.00,2013-07-13 02:31:00,
2013-07-12 19:36:00,69.4,52.5,30.00,NNW,341,3.0,3.0,55,0.00,,---,0.00,VWS V14.00,2013-07-13 02:36:00,
2013-07-12 19:41:00,69.1,52.8,30.00,NNW,340,2.0,7.0,56,0.00,,---,0.00,VWS V14.00,2013-07-13 02:41:00,
2013-07-12 19:46:00,68.9,53.1,30.01,NW,325,1.0,7.0,57,0.00,,---,0.00,VWS V14.00,2013-07-13 02:46:00,
2013-07-12 19:51:00,68.7,52.9,30.01,NNW,332,3.0,7.0,57,0.00,,---,0.00,VWS V14.00,2013-07-13 02:51:00,
2013-07-12 19:56:00,68.7,52.9,30.01,North,355,3.0,7.0,57,0.00,,---,0.00,VWS V14.00,2013-07-13 02:56:00,
2013-07-12 20:01:00,68.6,53.2,30.01,NW,322,0.0,7.0,58,0.00,,---,0.00,VWS V14.00,2013-07-13 03:01:00,
2013-07-12 20:06:00,68.5,53.2,30.01,NNW,334,2.0,7.0,58,0.00,,---,0.00,VWS V14.00,2013-07-13 03:06:00,
2013-07-12 20:11:00,68.4,53.1,30.01,NW,324,1.0,7.0,58,0.00,,---,0.00,VWS V14.00,2013-07-13 03:11:00,
2013-07-12 20:17:00,68.2,52.9,30.02,WNW,303,0.0,7.0,58,0.00,,---,0.00,VWS V14.00,2013-07-13 03:17:00,
2013-07-12 20:22:00,68.0,52.7,30.02,NW,315,2.0,7.0,58,0.00,,---,0.00,VWS V14.00,2013-07-13 03:22:00,
2013-07-12 20:27:00,67.8,53.4,30.02,NW,311,0.0,7.0,60,0.00,,---,0.00,VWS V14.00,2013-07-13 03:27:00,
2013-07-12 20:32:00,67.4,51.7,30.02,NW,323,2.0,7.0,57,0.00,,---,0.00,VWS V14.00,2013-07-13 03:32:00,
2013-07-12 20:37:00,67.1,51.4,30.02,NW,317,0.0,4.0,57,0.00,,---,0.00,VWS V14.00,2013-07-13 03:37:00,
2013-07-12 20:43:00,66.7,51.9,30.02,North,360,2.0,4.0,59,0.00,,---,0.00,VWS V14.00,2013-07-13 03:43:00,
2013-07-12 20:48:00,66.2,51.9,30.03,ENE,66,0.0,4.0,60,0.00,,---,0.00,VWS V14.00,2013-07-13 03:48:00,
2013-07-12 20:53:00,65.8,51.5,30.03,NNW,348,1.0,4.0,60,0.00,,---,0.00,VWS V14.00,2013-07-13 03:53:00,
2013-07-12 20:58:00,65.4,51.6,30.03,North,355,1.0,4.0,61,0.00,,---,0.00,VWS V14.00,2013-07-13 03:58:00,
2013-07-12 21:01:00,65.3,51.1,30.03,NNW,344,0.0,4.0,60,0.00,,---,0.00,VWS V14.00,2013-07-13 04:01:00,
2013-07-12 21:02:00,65.2,51.0,30.03,ENE,59,0.0,4.0,60,0.00,,---,0.00,VWS V14.00,2013-07-13 04:02:00,
2013-07-12 21:07:00,64.9,51.6,30.03,NNW,328,1.0,3.0,62,0.00,,---,0.00,VWS V14.00,2013-07-13 04:07:00,
2013-07-12 21:12:00,64.5,51.2,30.04,East,94,1.0,3.0,62,0.00,,---,0.00,VWS V14.00,2013-07-13 04:12:00,
2013-07-12 21:17:00,64.2,50.5,30.04,NE,42,3.0,4.0,61,0.00,,---,0.00,VWS V14.00,2013-07-13 04:17:00,
2013-07-12 21:22:00,63.9,51.1,30.04,NE,34,0.0,4.0,63,0.00,,---,0.00,VWS V14.00,2013-07-13 04:22:00,
2013-07-12 21:27:00,63.6,51.2,30.04,ENE,75,0.0,4.0,64,0.00,,---,0.00,VWS V14.00,2013-07-13 04:27:00,
2013-07-12 21:32:00,63.2,50.4,30.04,NNE,20,0.0,0.0,63,0.00,,---,0.00,VWS V14.00,2013-07-13 04:32:00,
2013-07-12 21:37:00,62.9,49.7,30.05,North,360,1.0,4.0,62,0.00,,---,0.00,VWS V14.00,2013-07-13 04:37:00,
2013-07-12 21:42:00,62.6,49.8,30.05,North,5,1.0,4.0,63,0.00,,---,0.00,VWS V14.00,2013-07-13 04:42:00,
2013-07-12 21:47:00,62.4,50.1,30.05,North,355,1.0,4.0,64,0.00,,---,0.00,VWS V14.00,2013-07-13 04:47:00,
2013-07-12 21:52:00,62.1,49.8,30.05,NNE,26,0.0,4.0,64,0.00,,---,0.00,VWS V14.00,2013-07-13 04:52:00,
2013-07-12 21:57:00,61.9,50.0,30.06,North,360,0.0,4.0,65,0.00,,---,0.00,VWS V14.00,2013-07-13 04:57:00,
2013-07-12 22:02:00,61.6,49.7,30.06,North,360,0.0,0.0,65,0.00,,---,0.00,VWS V14.00,2013-07-13 05:02:00,
2013-07-12 22:07:00,61.4,49.5,30.06,North,360,0.0,2.0,65,0.00,,---,0.00,VWS V14.00,2013-07-13 05:07:00,
2013-07-12 22:12:00,61.1,49.3,30.06,North,360,0.0,2.0,65,0.00,,---,0.00,VWS V14.00,2013-07-13 05:12:00,
2013-07-12 22:17:00,60.8,49.4,30.06,NNW,345,2.0,2.0,66,0.00,,---,0.00,VWS V14.00,2013-07-13 05:17:00,
2013-07-12 22:22:00,60.6,49.2,30.06,NW,314,0.0,2.0,66,0.00,,---,0.00,VWS V14.00,2013-07-13 05:22:00,
2013-07-12 22:27:00,60.4,49.4,30.06,WNW,291,0.0,3.0,67,0.00,,---,0.00,VWS V14.00,2013-07-13 05:27:00,
2013-07-12 22:32:00,60.2,49.6,30.06,NW,315,2.0,3.0,68,0.00,,---,0.00,VWS V14.00,2013-07-13 05:32:00,
2013-07-12 22:37:00,60.0,49.4,30.07,NNW,341,0.0,3.0,68,0.00,,---,0.00,VWS V14.00,2013-07-13 05:37:00,
2013-07-12 22:42:00,59.8,49.6,30.07,NW,304,0.0,3.0,69,0.00,,---,0.00,VWS V14.00,2013-07-13 05:42:00,
2013-07-12 22:47:00,59.8,49.6,30.07,NW,319,1.0,3.0,69,0.00,,---,0.00,VWS V14.00,2013-07-13 05:47:00,
2013-07-12 22:52:00,59.7,49.9,30.07,NW,319,2.0,5.0,70,0.00,,---,0.00,VWS V14.00,2013-07-13 05:52:00,
2013-07-12 22:57:00,59.6,49.8,30.07,NW,323,1.0,5.0,70,0.00,,---,0.00,VWS V14.00,2013-07-13 05:57:00,
2013-07-12 23:02:00,59.5,49.7,30.07,NW,325,2.0,2.0,70,0.00,,---,0.00,VWS V14.00,2013-07-13 06:02:00,
2013-07-12 23:07:00,59.3,49.5,30.07,NW,319,0.0,4.0,70,0.00,,---,0.00,VWS V14.00,2013-07-13 06:07:00,
2013-07-12 23:12:00,59.2,49.8,30.07,NW,314,1.0,4.0,71,0.00,,---,0.00,VWS V14.00,2013-07-13 06:12:00,
2013-07-12 23:17:00,59.0,49.6,30.08,NNW,330,3.0,4.0,71,0.00,,---,0.00,VWS V14.00,2013-07-13 06:17:00,
2013-07-12 23:22:00,58.9,49.9,30.08,NNW,333,0.0,4.0,72,0.00,,---,0.00,VWS V14.00,2013-07-13 06:22:00,
2013-07-12 23:27:00,58.8,50.2,30.08,NW,319,0.0,4.0,73,0.00,,---,0.00,VWS V14.00,2013-07-13 06:27:00,
2013-07-12 23:32:00,58.6,50.0,30.08,NNW,337,2.0,4.0,73,0.00,,---,0.00,VWS V14.00,2013-07-13 06:32:00,
2013-07-12 23:37:00,58.5,50.2,30.08,NNW,342,0.0,4.0,74,0.00,,---,0.00,VWS V14.00,2013-07-13 06:37:00,
2013-07-12 23:42:00,58.3,50.4,30.08,NW,325,1.0,4.0,75,0.00,,---,0.00,VWS V14.00,2013-07-13 06:42:00,
2013-07-12 23:47:00,58.2,50.3,30.08,NW,321,2.0,4.0,75,0.00,,---,0.00,VWS V14.00,2013-07-13 06:47:00,
2013-07-12 23:52:00,58.1,50.2,30.08,North,355,2.0,4.0,75,0.00,,---,0.00,VWS V14.00,2013-07-13 06:52:00,
2013-07-12 23:58:00,58.0,50.5,30.09,NW,322,1.0,4.0,76,0.00,,---,0.00,VWS V14.00,2013-07-13 06:58:00,